SCP
0 0 0 0 0 0 0 0 0 0 0 0 0 0 0 -0 -0 -0 0 0 0 0
0 0 0 0 0 0 0 0 -0 0 0 0 0 -0 -0 -0 0 0 0 0 0 0
0 0 0 0 0 0 0 0 0 0 0 0 0 0 0 0 0 0 0 0 0 0
0 0 0 0 0 0 0 0 0 0 -0 0 0 0 0 0 0 0 0 0 0 0
0 0 0 0 0 0 -0 0 0 0 0 0 0 0 0 0 0 0 0 0 0 0
0 0 0 0 0 0 0 0 0 0 0 0 0 0 0 0 0 0 0 0 0 0
0 0 0 0 0 0 0 0 0 0 0 0 0 0 0 0 0 0 0 0 0 0
0 0 0 0 0 0 0 0 0 0 0 0 0 0 0 0 0 0 0 0 0 0
0 0 0 0 0 0 0 0 0 0 0 0 0 0 -0 0 0 0 0 0 0 0
0 0 0 0 0 0 0 0 0 0 0 0 0 -0 -0 0 0 0 0 0 0 0
0 0 0 0 0 0 0 0 0 0 0 -0 0 0 0 0 0 0 0 0 0 0
0 0 0 0 0 0 0 0 0 0 0 0 0 0 0 0 0 0 0 0 0 0
0 0 0 0 0 0 0 0 0 0 0 0 0 0 0 0 0 0 0 0 0 0
0 0 0 0 0 0 0 0 0 -0 -0 0 0 0 0 0 0 0 0 0 0 0
Wind_Speed_500mb
19 25 26 31 33 37 37 47 68 45 55 41 57 61 66 73 67 75 79 76 73 73
24 23 25 31 29 34 34 26 41 47 38 46 79 83 78 65 75 73 70 65 63 68
37 35 34 41 36 38 36 25 36 51 44 39 48 67 68 69 63 66 66 56 56 62
25 32 37 32 32 37 34 26 15 56 74 30 39 82 57 54 57 58 67 56 55 55
22 26 31 35 33 23 34 36 26 31 47 40 43 48 41 39 34 40 54 55 47 41
23 24 24 26 28 29 32 42 37 27 24 31 38 43 30 32 30 33 29 35 35 27
23 23 22 22 23 26 39 42 42 28 29 41 39 39 40 33 30 31 31 30 30 26
12 12 15 19 25 23 35 36 31 25 45 43 44 46 34 30 32 37 39 36 33 28
4 8 11 15 15 31 34 41 36 37 49 56 57 52 47 46 47 42 37 34 34 33
15 21 22 13 28 40 42 49 56 57 66 69 64 49 42 35 38 41 39 36 35 34
39 40 39 45 54 58 74 79 77 66 64 62 55 44 37 33 36 41 42 37 32 30
51 56 59 60 64 66 65 66 65 66 61 62 55 42 35 32 35 40 40 36 31 28
65 64 66 66 58 61 63 64 57 60 56 53 50 40 33 30 27 31 31 26 26 23
50 53 48 49 48 53 53 52 52 52 47 43 38 33 27 24 21 22 20 18 16 15
Wind_Direction_500mb
213 238 246 251 253 249 266 249 237 230 222 246 236 232 223 218 220 223 224 231 232 238
224 236 243 245 249 250 249 258 240 237 256 249 225 225 227 225 229 229 227 237 241 246
247 249 251 253 259 252 243 262 230 226 238 257 239 222 218 219 227 234 231 232 242 242
261 251 251 252 252 246 241 253 268 225 233 294 252 216 207 206 216 232 232 236 248 246
276 260 252 249 246 234 231 244 258 216 208 274 231 221 217 218 217 225 229 218 215 216
282 271 260 255 242 232 220 250 253 222 249 244 214 227 187 203 184 181 191 199 205 212
271 266 257 239 227 227 252 225 240 243 262 202 185 169 170 182 187 195 185 175 160 157
279 251 244 230 209 211 221 225 216 233 207 170 165 152 158 162 151 145 139 134 131 135
242 158 165 182 237 216 197 176 180 188 157 140 125 122 130 138 137 135 130 124 122 120
109 131 132 164 159 163 150 148 150 139 132 124 118 125 127 134 134 128 123 120 118 119
101 114 128 137 135 136 129 125 121 117 111 108 107 110 117 127 124 121 116 111 110 114
90 102 110 114 116 114 117 116 110 102 100 102 104 109 113 117 120 120 117 120 121 117
81 84 88 90 86 91 92 98 106 107 110 116 113 111 115 116 117 114 119 127 127 120
83 87 95 101 101 104 108 112 111 112 114 114 116 119 121 118 124 119 136 143 133 136
Wind_Speed_850mb
19 25 26 31 33 37 37 47 68 45 55 41 57 61 66 73 67 75 79 76 73 73
24 23 25 31 29 34 34 26 41 47 38 46 79 83 78 65 75 73 70 65 63 68
37 35 34 41 36 38 36 25 36 51 44 39 48 67 68 69 63 66 66 56 56 62
25 32 37 32 32 37 34 26 15 56 74 30 39 82 57 54 57 58 67 56 55 55
22 26 31 35 33 23 34 36 26 31 47 40 43 48 41 39 34 40 54 55 47 41
23 24 24 26 28 29 32 42 37 27 24 31 38 43 30 32 30 33 29 35 35 27
23 23 22 22 23 26 39 42 42 28 29 41 39 39 40 33 30 31 31 30 30 26
12 12 15 19 25 23 35 36 31 25 45 43 44 46 34 30 32 37 39 36 33 28
4 8 11 15 15 31 34 41 36 37 49 56 57 52 47 46 47 42 37 34 34 33
15 21 22 13 28 40 42 49 56 57 66 69 64 49 42 35 38 41 39 36 35 34
39 40 39 45 54 58 74 79 77 66 64 62 55 44 37 33 36 41 42 37 32 30
51 56 59 60 64 66 65 66 65 66 61 62 55 42 35 32 35 40 40 36 31 28
65 64 66 66 58 61 63 64 57 60 56 53 50 40 33 30 27 31 31 26 26 23
50 53 48 49 48 53 53 52 52 52 47 43 38 33 27 24 21 22 20 18 16 15
Wind_Direction_850mb
213 238 246 251 253 249 266 249 237 230 222 246 236 232 223 218 220 223 224 231 232 238
224 236 243 245 249 250 249 258 240 237 256 249 225 225 227 225 229 229 227 237 241 246
247 249 251 253 259 252 243 262 230 226 238 257 239 222 218 219 227 234 231 232 242 242
261 251 251 252 252 246 241 253 268 225 233 294 252 216 207 206 216 232 232 236 248 246
276 260 252 249 246 234 231 244 258 216 208 274 231 221 217 218 217 225 229 218 215 216
282 271 260 255 242 232 220 250 253 222 249 244 214 227 187 203 184 181 191 199 205 212
271 266 257 239 227 227 252 225 240 243 262 202 185 169 170 182 187 195 185 175 160 157
279 251 244 230 209 211 221 225 216 233 207 170 165 152 158 162 151 145 139 134 131 135
242 158 165 182 237 216 197 176 180 188 157 140 125 122 130 138 137 135 130 124 122 120
109 131 132 164 159 163 150 148 150 139 132 124 118 125 127 134 134 128 123 120 118 119
101 114 128 137 135 136 129 125 121 117 111 108 107 110 117 127 124 121 116 111 110 114
90 102 110 114 116 114 117 116 110 102 100 102 104 109 113 117 120 120 117 120 121 117
81 84 88 90 86 91 92 98 106 107 110 116 113 111 115 116 117 114 119 127 127 120
83 87 95 101 101 104 108 112 111 112 114 114 116 119 121 118 124 119 136 143 133 136